Date String (YYYY-MM-DD hh:mm:ss) UTC,Instrument flags,Ambient pressure (hPa),Sample flow (lpm),Bypass flow (lpm),Sample temperature (°C),Ambient temperature (°C),ASC tube jacket temperature (°C),LED temperature (°C),Box temperature (°C),Sample RH (%),Span deviation,Mass concentration (μg/m³),Mass concentration (μg/m³),Mass concentration (μg/m³)
DateTimeUTC,F1_M11,P_M11,Q1_M11,Q2_M11,T1_M11,T2_M11,T3_M11,T4_M11,T5_M11,U1_M11,ZSPAN_M11,X0_M11,X2_M11,X1_M11
2022-10-09 18:00:00,,0833.0,5.00,0.00,30.3,29.3,00.0,39.0,32.2,13.9,0000.0,0009.45,0005.58,0005.16
2022-10-09 18:01:00,,0832.9,4.99,0.00,30.4,29.3,00.0,39.0,32.2,13.9,0000.0,0009.45,0005.58,0005.16
2022-10-09 18:02:00,,0832.9,5.01,0.00,30.4,29.3,00.0,39.0,32.2,13.7,0000.0,0009.34,0005.57,0005.17
2022-10-09 18:03:00,,0832.8,4.99,0.00,30.4,29.3,00.0,39.0,32.2,13.4,0000.0,0009.50,0005.53,0005.16
2022-10-09 18:04:00,,0832.8,5.01,0.00,30.4,29.3,00.0,39.0,32.2,13.8,0000.0,0009.89,0005.52,0005.16
2022-10-09 18:05:00,,0832.8,5.00,0.00,30.4,29.3,00.0,39.1,32.3,14.1,0000.0,0009.56,0005.52,0005.18
2022-10-09 18:06:00,,0832.8,4.99,0.00,30.4,29.4,00.0,39.1,32.3,14.0,0000.0,0009.12,0005.56,0005.20
2022-10-09 18:07:00,,0832.8,5.01,0.00,30.4,29.4,00.0,39.1,32.3,13.8,0000.0,0009.11,0005.56,0005.21
2022-10-09 18:08:00,,0832.9,5.01,0.00,30.5,28.6,00.0,39.1,32.3,14.4,0000.0,0009.04,0005.54,0005.21
2022-10-09 18:09:00,,0832.8,5.00,0.00,30.4,27.4,00.0,39.1,32.1,14.2,0000.0,0009.49,0005.56,0005.22
2022-10-09 18:10:00,,0832.8,5.00,0.00,30.4,27.2,00.0,39.0,32.0,14.5,0000.0,0009.63,0005.58,0005.22
2022-10-09 18:11:00,,0832.7,5.00,0.00,30.3,27.4,00.0,39.0,31.9,14.5,0000.0,0009.57,0005.57,0005.22
2022-10-09 18:12:00,,0832.7,5.00,0.00,30.2,27.7,00.0,38.9,31.8,14.4,0000.0,0009.82,0005.56,0005.22
2022-10-09 18:13:00,,0832.7,5.00,0.00,30.2,28.0,00.0,38.9,31.8,14.4,0000.0,0010.08,0005.56,0005.22
2022-10-09 18:14:00,,0832.8,5.01,0.00,30.1,28.2,00.0,38.9,31.9,14.3,0000.7,0009.98,0005.56,0005.22
2022-10-09 18:15:00,,0832.8,4.99,0.00,30.1,28.3,00.0,38.9,31.9,14.4,0002.2,0009.56,0005.53,0005.21
2022-10-09 18:16:00,,0832.8,5.01,0.00,30.1,28.5,00.0,38.9,31.9,14.8,0002.1,0010.00,0005.52,0005.19
2022-10-09 18:17:00,,0832.8,5.00,0.00,30.1,28.6,00.0,38.9,31.9,14.9,0001.9,0010.13,0005.52,0005.18
2022-10-09 18:18:00,,0832.8,5.00,0.00,30.1,28.7,00.0,38.9,31.9,14.3,0001.9,0010.20,0005.50,0005.16
2022-10-09 18:19:00,,0832.7,5.00,0.00,30.1,28.8,00.0,38.9,32.0,14.0,0002.0,0010.17,0005.48,0005.13
2022-10-09 18:20:00,,0832.8,5.00,0.00,30.1,28.9,00.0,38.9,32.0,14.1,0002.1,0009.62,0005.43,0005.10
2022-10-09 18:21:00,,0832.7,5.00,0.00,30.2,28.9,00.0,38.9,32.0,13.5,0002.1,0009.40,0005.39,0005.08
2022-10-09 18:22:00,,0832.7,5.00,0.00,30.2,29.0,00.0,38.9,32.0,13.6,0000.0,0009.63,0005.37,0005.05
2022-10-09 18:23:00,,0832.7,5.01,0.00,30.2,29.0,00.0,38.9,32.0,14.0,0000.0,0009.32,0005.32,0005.03
2022-10-09 18:24:00,,0832.7,4.99,0.00,30.2,29.1,00.0,38.9,32.0,14.1,0000.0,0009.79,0005.35,0005.00
2022-10-09 18:25:00,,0832.7,5.01,0.00,30.2,29.1,00.0,38.9,32.1,14.0,0000.0,0010.39,0005.34,0005.00
2022-10-09 18:26:00,,0832.6,4.99,0.00,30.2,29.1,00.0,38.9,32.1,14.0,0000.0,0010.42,0005.37,0004.99
2022-10-09 18:27:00,,0832.6,5.00,0.00,30.3,29.2,00.0,38.9,32.1,14.1,0000.0,0009.85,0005.36,0004.98
2022-10-09 18:28:00,,0832.6,5.01,0.00,30.3,29.0,00.0,39.0,32.1,14.0,0000.0,0009.69,0005.33,0004.98
2022-10-09 18:29:00,,0832.7,4.99,0.00,30.3,27.8,00.0,38.9,31.9,14.1,0000.0,0009.54,0005.33,0004.98
2022-10-09 18:30:00,,0832.6,5.00,0.00,30.2,26.6,00.0,38.9,31.8,14.6,0000.0,0009.64,0005.37,0004.98
2022-10-09 18:31:00,,0832.6,4.99,0.00,30.1,26.7,00.0,38.8,31.7,14.4,0000.0,0009.71,0005.39,0004.98
2022-10-09 18:32:00,,0832.6,5.00,0.00,30.0,27.0,00.0,38.8,31.5,14.4,0000.0,0009.71,0005.42,0005.00
2022-10-09 18:33:00,,0832.6,5.00,0.00,29.9,27.3,00.0,38.7,31.5,14.6,0000.0,0009.50,0005.45,0005.01
2022-10-09 18:34:00,,0832.6,5.01,0.00,29.9,27.6,00.0,38.7,31.5,14.5,0000.0,0009.54,0005.47,0005.01
2022-10-09 18:35:00,,0832.6,5.00,0.00,29.9,27.9,00.0,38.7,31.6,14.5,0000.0,0009.14,0005.45,0005.02
2022-10-09 18:36:00,,0832.5,4.98,0.00,29.9,28.1,00.0,38.7,31.6,14.7,0000.0,0008.98,0005.47,0005.03
2022-10-09 18:37:00,,0832.6,5.01,0.00,29.9,28.2,00.0,38.7,31.6,15.4,0000.0,0008.98,0005.47,0005.04
2022-10-09 18:38:00,,0832.5,4.99,0.00,29.9,28.4,00.0,38.7,31.7,15.1,0000.0,0008.95,0005.46,0005.04
2022-10-09 18:39:00,,0832.5,5.01,0.00,29.9,28.5,00.0,38.7,31.7,15.0,0000.0,0008.99,0005.46,0005.04
2022-10-09 18:40:00,,0832.5,5.00,0.00,29.9,28.6,00.0,38.7,31.7,15.4,0000.0,0009.08,0005.48,0005.04
2022-10-09 18:41:00,,0832.5,5.00,0.00,29.9,28.6,00.0,38.7,31.8,15.1,0000.0,0009.12,0005.50,0005.07
2022-10-09 18:42:00,,0832.5,5.00,0.00,29.9,28.7,00.0,38.7,31.8,15.0,0000.0,0009.14,0005.56,0005.13
2022-10-09 18:43:00,,0832.5,4.99,0.00,30.0,28.8,00.0,38.7,31.8,15.4,0000.0,0009.17,0005.63,0005.20
2022-10-09 18:44:00,,0832.5,5.01,0.00,30.0,28.8,00.0,38.7,31.9,15.1,0000.0,0009.19,0005.66,0005.25
2022-10-09 18:45:00,,0832.4,4.98,0.00,30.0,28.9,00.0,38.7,31.9,15.0,0000.0,0009.36,0005.76,0005.32
2022-10-09 18:46:00,,0832.4,5.01,0.00,30.0,28.9,00.0,38.7,31.9,15.1,0000.0,0009.43,0005.81,0005.37
2022-10-09 18:47:00,,0832.5,4.99,0.00,30.0,29.0,00.0,38.7,31.9,15.0,0000.0,0008.76,0005.83,0005.42
2022-10-09 18:48:00,,0832.4,5.01,0.00,30.1,29.0,00.0,38.7,32.0,14.8,0000.0,0008.75,0005.88,0005.46
2022-10-09 18:49:00,,0832.3,4.99,0.00,30.1,29.0,00.0,38.8,32.0,14.7,0000.0,0009.15,0005.97,0005.52
2022-10-09 18:50:00,,0832.4,5.00,0.00,30.1,28.0,00.0,38.7,31.9,14.7,0000.0,0009.23,0006.01,0005.56
2022-10-09 18:51:00,,0832.4,5.00,0.00,30.0,26.5,00.0,38.7,31.6,14.9,0000.0,0009.22,0006.03,0005.60
2022-10-09 18:52:00,,0832.3,4.99,0.00,29.9,26.3,00.0,38.6,31.5,14.7,0000.0,0009.23,0006.04,0005.62
2022-10-09 18:53:00,,0832.3,4.99,0.00,29.8,26.5,00.0,38.6,31.4,15.1,0000.0,0009.32,0006.04,0005.62
2022-10-09 18:54:00,,0832.2,4.99,0.00,29.8,26.9,00.0,38.6,31.4,15.3,0000.0,0009.32,0006.01,0005.60
2022-10-09 18:55:00,,0832.2,5.00,0.00,29.7,27.2,00.0,38.5,31.4,15.1,0000.0,0009.38,0006.01,0005.60
2022-10-09 18:56:00,,0832.3,5.00,0.00,29.7,27.5,00.0,38.5,31.4,14.9,0000.0,0009.36,0005.99,0005.59
2022-10-09 18:57:00,,0832.2,4.99,0.00,29.7,27.8,00.0,38.5,31.4,14.8,0000.0,0009.52,0005.99,0005.58
2022-10-09 18:58:00,,0832.3,5.00,0.00,29.7,28.0,00.0,38.5,31.5,14.7,0000.0,0009.78,0006.00,0005.57
2022-10-09 18:59:00,,0832.3,5.01,0.00,29.7,28.1,00.0,38.5,31.5,14.4,0000.0,0010.25,0005.97,0005.55
